Location: Bluff Heights
(33.7692°N, 118.1592°W)
Time: 00:26:45
(UTC+00:00)

Vanguard 1 Rocket - Pass Details

Date: 27 September 2021
Orbit: 650 x 4226 km, 34.3° (Epoch: 22 October)

Event Time Altitude Azimuth Distance (km) Brightness Sun altitude
Exits shadow 11:09:16 30° 200° (SSW) 4,057 10.3 -32.4°
Drops below altitude 10° 11:23:49 10° 157° (SSE) 6,757 11.8 -29.6°
Sets 11:31:04 0° 149° (SSE) 8,182 12.4 -28.1°
